Home   Weather   Allentown   Past weeks

Flag for USA Past Weather in Allentown, Pennsylvania, USA — Yesterday and Last 2 Weeks

52 °F

Light rain. Mostly cloudy.

Feels Like: 47 °F
Forecast: 46 / 54 °F
Wind: 14 mph from North

Location: Lehigh Valley International Airport

Current Time: Oct 22, 2016 at 3:10:40 AM

Latest Report: Oct 22, 2016 at 2:51 AM

Visibility: 10 mi

Pressure: 29.46 "Hg

Humidity: 75%

Dew Point: 44 °F

Location of AllentownLocation

Past Weather in Allentown — Graph


Allentown Temperature Yesterday

Maximum temperature yesterday: 79 °F (at 1:51 PM)
Minimum temperature yesterday: 54 °F (at 11:51 PM)
Average temperature yesterday: 68 °F

High & Low Weather Summary for the Past Weeks

High84 °F (Oct 18, 2:51 PM)96% (Oct 18, 7:51 AM)30.49 "Hg (Oct 18, 7:51 AM)
Low33 °F (Oct 15, 6:51 AM)24% (Oct 11, 3:51 PM)29.49 "Hg (Oct 22, 12:51 AM)
Average59 °F69%30.12 "Hg
* Reported Oct 7 1:51 AM — Oct 22 1:51 AM, Allentown, Weather by CustomWeather, © 2016

Note: Actual official high and low records may vary slightly from our data, if they occured in-between our weather recording intervals... More about our weather records


Allentown Weather History for the Previous 24 Hours

Scroll right to see more
Time TempWeatherWind HumidityBarometerVisibility
1:51 AM
Sat, Oct 22
53 °FLight rain. Mostly cloudy.16 mph74%29.51 "Hg10 mi
12:51 AM54 °FMostly cloudy.10 mph74%29.49 "Hg10 mi
11:51 PM
Fri, Oct 21
54 °FOvercast.9 mph77%29.52 "Hg10 mi
10:51 PM55 °FMostly cloudy.8 mph77%29.54 "Hg7 mi
9:51 PM55 °FLight rain. Mostly cloudy.7 mph83%29.54 "Hg10 mi
8:51 PM55 °FLight rain. Overcast.9 mph87%29.53 "Hg10 mi
7:51 PM60 °FLight rain. Overcast.6 mph75%29.53 "Hg10 mi
6:51 PM67 °FMostly cloudy.10 mph66%29.52 "Hg10 mi
5:51 PM70 °FMostly cloudy.13 mph61%29.50 "Hg10 mi
4:51 PM79 °FMostly cloudy.6 mph45%29.50 "Hg10 mi
3:51 PM79 °FPassing clouds.7 mph47%29.51 "Hg10 mi
2:51 PM78 °FPassing clouds.9 mph48%29.54 "Hg10 mi
1:51 PM79 °FSunny.9 mph48%29.58 "Hg10 mi
12:51 PM77 °FScattered clouds.8 mph54%29.63 "Hg10 mi
11:51 AM76 °FPartly sunny.13 mph60%29.67 "Hg10 mi
10:51 AM73 °FPartly sunny.9 mph69%29.70 "Hg10 mi
9:51 AM70 °FOvercast.9 mph76%29.72 "Hg10 mi
8:51 AM69 °FOvercast.9 mph81%29.75 "Hg10 mi
7:51 AM68 °FOvercast.7 mph82%29.76 "Hg10 mi
6:51 AM68 °FPassing clouds.7 mph82%29.78 "Hg10 mi
5:51 AM68 °FPassing clouds.10 mph82%29.80 "Hg10 mi
4:51 AM67 °FPassing clouds.10 mph85%29.80 "Hg10 mi
3:51 AM68 °FPassing clouds.8 mph82%29.83 "Hg10 mi
Weather by CustomWeather, © 2016

See weather overviewHow to use our weather pages